Tiempo cada hora Goiana

Hoy, 1 Diciembre, Martes

Tiempo Temperatura Precipitaciones Viento Presión Humedad
00:00 +26°C° 0 mm 2 mps 758 mmHg 81%
01:00 +26°C° 0 mm 2 mps 758 mmHg 83%
02:00 +26°C° 0 mm 2 mps 758 mmHg 84%
03:00 +25°C° 0 mm 2 mps 758 mmHg 85%
04:00 +25°C° 0 mm 2 mps 757 mmHg 86%
05:00 +25°C° 0 mm 2 mps 758 mmHg 84%
06:00 +26°C° 0 mm 2 mps 758 mmHg 82%
07:00 +26°C° 0 mm 2 mps 758 mmHg 80%
08:00 +28°C° 0.1 mm 2 mps 758 mmHg 73%
09:00 +30°C° 0.1 mm 3 mps 759 mmHg 67%
10:00 +32°C° 0.1 mm 4 mps 759 mmHg 60%
11:00 +33°C° 0.1 mm 5 mps 759 mmHg 58%
12:00 +33°C° 0.1 mm 5 mps 758 mmHg 56%
13:00 +34°C° 0.1 mm 6 mps 758 mmHg 54%
14:00 +33°C° 0 mm 5 mps 758 mmHg 56%
15:00 +33°C° 0 mm 5 mps 757 mmHg 58%
16:00 +32°C° 0 mm 5 mps 757 mmHg 60%
17:00 +30°C° 0 mm 4 mps 757 mmHg 65%
18:00 +29°C° 0 mm 4 mps 757 mmHg 70%
19:00 +28°C° 0 mm 3 mps 758 mmHg 75%
20:00 +28°C° 0 mm 3 mps 758 mmHg 77%
21:00 +27°C° 0 mm 2 mps 758 mmHg 80%
22:00 +27°C° 0 mm 2 mps 759 mmHg 83%
23:00 +27°C° 0.1 mm 2 mps 758 mmHg 84%

Mañana, 2 Diciembre, Miércoles

Tiempo Temperatura Precipitaciones Viento Presión Humedad
00:00 +27°C° 0.1 mm 2 mps 758 mmHg 86%
01:00 +26°C° 0.1 mm 2 mps 758 mmHg 87%
02:00 +26°C° 0.1 mm 2 mps 757 mmHg 87%
03:00 +26°C° 0.1 mm 2 mps 757 mmHg 88%
04:00 +26°C° 0.1 mm 2 mps 757 mmHg 88%
05:00 +27°C° 0 mm 3 mps 757 mmHg 86%
06:00 +27°C° 0 mm 3 mps 757 mmHg 83%
07:00 +28°C° 0 mm 3 mps 758 mmHg 80%
08:00 +29°C° 0 mm 3 mps 758 mmHg 74%
09:00 +30°C° 0 mm 4 mps 758 mmHg 67%
10:00 +33°C° 0 mm 5 mps 759 mmHg 61%
11:00 +33°C° 0.2 mm 5 mps 758 mmHg 59%
12:00 +33°C° 0.2 mm 5 mps 758 mmHg 58%
13:00 +34°C° 0.2 mm 5 mps 758 mmHg 57%
14:00 +33°C° 0.2 mm 5 mps 757 mmHg 59%
15:00 +33°C° 0.2 mm 5 mps 757 mmHg 61%
16:00 +32°C° 0.2 mm 5 mps 756 mmHg 64%
17:00 +30°C° 0 mm 4 mps 757 mmHg 69%
18:00 +29°C° 0 mm 4 mps 757 mmHg 74%
19:00 +28°C° 0 mm 3 mps 758 mmHg 79%
20:00 +28°C° 0.1 mm 3 mps 758 mmHg 81%
21:00 +27°C° 0.1 mm 2 mps 758 mmHg 83%
22:00 +27°C° 0.1 mm 2 mps 759 mmHg 84%
23:00 +27°C° 0.1 mm 2 mps 758 mmHg 85%

Pasado mañana, 3 Diciembre, Jueves

Tiempo Temperatura Precipitaciones Viento Presión Humedad
00:00 +27°C° 0.1 mm 1 mps 758 mmHg 86%
01:00 +26°C° 0.1 mm 1 mps 758 mmHg 88%
02:00 +26°C° 0.1 mm 1 mps 757 mmHg 88%
03:00 +26°C° 0.1 mm 1 mps 757 mmHg 88%
04:00 +26°C° 0.1 mm 1 mps 757 mmHg 88%
05:00 +26°C° 0 mm 1 mps 757 mmHg 85%
06:00 +27°C° 0 mm 1 mps 758 mmHg 82%
07:00 +27°C° 0 mm 2 mps 758 mmHg 80%
08:00 +29°C° 0 mm 2 mps 758 mmHg 73%
09:00 +30°C° 0 mm 3 mps 758 mmHg 66%
10:00 +33°C° 0 mm 4 mps 759 mmHg 59%
11:00 +33°C° 0.1 mm 4 mps 758 mmHg 57%
12:00 +34°C° 0.1 mm 4 mps 758 mmHg 56%
13:00 +34°C° 0.1 mm 5 mps 757 mmHg 54%
14:00 +34°C° 0.1 mm 5 mps 757 mmHg 56%
15:00 +33°C° 0.1 mm 5 mps 756 mmHg 57%
16:00 +33°C° 0.1 mm 5 mps 756 mmHg 58%
17:00 +32°C° 0 mm 4 mps 757 mmHg 64%
18:00 +30°C° 0 mm 3 mps 757 mmHg 69%
19:00 +29°C° 0 mm 3 mps 758 mmHg 74%
20:00 +28°C° 0 mm 2 mps 758 mmHg 76%
21:00 +28°C° 0 mm 2 mps 758 mmHg 79%
22:00 +28°C° 0 mm 2 mps 759 mmHg 81%
23:00 +27°C° 0.1 mm 2 mps 759 mmHg 82%

4 Diciembre, Viernes

Tiempo Temperatura Precipitaciones Viento Presión Humedad
00:00 +27°C° 0.1 mm 1 mps 758 mmHg 83%
01:00 +27°C° 0.1 mm 1 mps 758 mmHg 84%
02:00 +27°C° 0.1 mm 1 mps 758 mmHg 84%
03:00 +27°C° 0.1 mm 1 mps 758 mmHg 84%
04:00 +26°C° 0.1 mm 1 mps 757 mmHg 84%
05:00 +27°C° 0.2 mm 1 mps 758 mmHg 83%
06:00 +27°C° 0.2 mm 1 mps 758 mmHg 81%
07:00 +27°C° 0.2 mm 1 mps 759 mmHg 79%
08:00 +29°C° 0.1 mm 2 mps 759 mmHg 71%
09:00 +31°C° 0.1 mm 3 mps 759 mmHg 63%
10:00 +33°C° 0.1 mm 4 mps 759 mmHg 56%
11:00 +34°C° 0.1 mm 4 mps 759 mmHg 54%
12:00 +34°C° 0.1 mm 4 mps 759 mmHg 53%
13:00 +34°C° 0.1 mm 4 mps 758 mmHg 52%
14:00 +34°C° 0 mm 4 mps 758 mmHg 54%
15:00 +34°C° 0 mm 4 mps 757 mmHg 56%
16:00 +33°C° 0 mm 5 mps 757 mmHg 57%
17:00 +32°C° 0 mm 4 mps 757 mmHg 64%
18:00 +30°C° 0 mm 4 mps 757 mmHg 71%
19:00 +29°C° 0 mm 3 mps 757 mmHg 78%
20:00 +28°C° 0 mm 3 mps 758 mmHg 80%
21:00 +28°C° 0 mm 3 mps 758 mmHg 82%
22:00 +28°C° 0 mm 2 mps 758 mmHg 84%
23:00 +27°C° 0.1 mm 2 mps 758 mmHg 84%

5 Diciembre, Sábado

Tiempo Temperatura Precipitaciones Viento Presión Humedad
00:00 +27°C° 0.1 mm 2 mps 758 mmHg 84%
01:00 +27°C° 0.1 mm 2 mps 757 mmHg 85%
02:00 +27°C° 0.1 mm 2 mps 757 mmHg 85%
03:00 +27°C° 0.1 mm 2 mps 757 mmHg 85%
04:00 +27°C° 0.1 mm 2 mps 757 mmHg 85%
05:00 +27°C° 0.1 mm 3 mps 757 mmHg 83%
06:00 +27°C° 0.1 mm 3 mps 758 mmHg 81%
07:00 +28°C° 0.1 mm 3 mps 758 mmHg 79%
08:00 +29°C° 0.1 mm 4 mps 758 mmHg 72%
09:00 +32°C° 0.1 mm 4 mps 759 mmHg 65%
10:00 +33°C° 0.1 mm 5 mps 759 mmHg 58%
11:00 +33°C° 0.1 mm 5 mps 759 mmHg 57%
12:00 +34°C° 0.1 mm 5 mps 759 mmHg 56%
13:00 +34°C° 0.1 mm 6 mps 758 mmHg 55%
14:00 +33°C° 0 mm 6 mps 758 mmHg 57%
15:00 +33°C° 0 mm 5 mps 757 mmHg 60%
16:00 +32°C° 0 mm 5 mps 757 mmHg 63%
17:00 +30°C° 0 mm 5 mps 757 mmHg 67%
18:00 +29°C° 0 mm 4 mps 757 mmHg 72%
19:00 +28°C° 0 mm 3 mps 758 mmHg 77%
20:00 +28°C° 0 mm 3 mps 758 mmHg 79%
21:00 +27°C° 0 mm 3 mps 758 mmHg 81%
22:00 +27°C° 0 mm 3 mps 759 mmHg 84%
23:00 +27°C° 0 mm 3 mps 758 mmHg 84%

6 Diciembre, Domingo

Tiempo Temperatura Precipitaciones Viento Presión Humedad
00:00 +27°C° 0 mm 2 mps 758 mmHg 85%
01:00 +26°C° 0 mm 2 mps 758 mmHg 85%
02:00 +26°C° 0 mm 2 mps 758 mmHg 85%
03:00 +26°C° 0 mm 2 mps 757 mmHg 85%
04:00 +26°C° 0 mm 2 mps 757 mmHg 86%
05:00 +27°C° 0.1 mm 3 mps 757 mmHg 84%
06:00 +27°C° 0.1 mm 3 mps 758 mmHg 83%
07:00 +27°C° 0.1 mm 3 mps 758 mmHg 81%
08:00 +29°C° 0 mm 4 mps 758 mmHg 73%
09:00 +30°C° 0 mm 4 mps 758 mmHg 66%
10:00 +33°C° 0 mm 5 mps 759 mmHg 58%
11:00 +33°C° 0 mm 5 mps 758 mmHg 56%
12:00 +34°C° 0 mm 5 mps 758 mmHg 54%
13:00 +34°C° 0 mm 5 mps 758 mmHg 52%
14:00 +34°C° 0 mm 5 mps 757 mmHg 54%
15:00 +33°C° 0 mm 5 mps 757 mmHg 56%
16:00 +33°C° 0 mm 5 mps 757 mmHg 58%
17:00 +30°C° 0 mm 4 mps 757 mmHg 64%
18:00 +29°C° 0 mm 4 mps 757 mmHg 70%
19:00 +28°C° 0 mm 3 mps 758 mmHg 76%
20:00 +28°C° 0 mm 3 mps 758 mmHg 78%
21:00 +27°C° 0 mm 3 mps 758 mmHg 81%
22:00 +27°C° 0 mm 2 mps 759 mmHg 83%
23:00 +27°C° 0 mm 2 mps 758 mmHg 84%
Mostrar más

Necesitamos Su Consentimiento

Meteoprog y nuestros Proveedores de Servicios pueden almacenar y acceder a sus datos personales como cookies, identificadores de dispositivo u otras tecnologías similares de su dispositivo y procesar dichos datos para personalizar contenido y anuncios, además de ofrecer funciones de redes sociales y analizar el tráfico.

  • Almacenar y/o acceder a información en su dispositivo

    Se puede almacenar o acceder a cookies, identificadores de dispositivo u otra información de su dispositivo para los fines anteriormente indicados.

  • Anuncios y contenido personalizados, medición de anuncios y contenido, percepciones del público, y desarrollo de productos

    Los anuncios y el contenido pueden personalizarse en base a su perfil. Se pueden añadir más datos para personalizar mejor los anuncios y contenidos. Se puede medir el rendimiento de los anuncios y contenidos. Se puede obtener la percepción sobre el público que ha visto los anuncios y contenidos. Dichos datos pueden usarse para desarrollar o mejorar la experiencia del usuario, sistemas y software.

Al hacer clic en ‘Estoy De Acuerdo’ usted permitirá el uso de las cookies, identificadores de dispositivo, balizas web u otras tecnologías similares indicadas. Su configuración puede cambiarse desde el navegador de su dispositivo.

Para ciertos fines, los intereses legítimos pueden ser considerados por encima del consentimiento. Puede leer más sobre ello en nuestra Política de Privacidad y Cookies.